CAPE
0 0 0 0 0 0 0 0 0 0 0 0 0 0 0 0 0 0 0 0 0 0 0 0 0 0 0 0 1 0 0 0 0 0 0 1 3 6
0 0 0 0 0 0 0 0 0 0 0 0 0 0 0 1 0 0 0 0 0 0 0 0 0 0 0 0 0 0 0 0 1 1 1 1 3 5
0 0 0 0 0 0 0 0 0 0 0 0 0 0 0 0 0 0 0 0 0 0 0 0 0 0 0 0 0 0 0 1 1 1 1 0 4 3
0 0 0 0 0 0 0 0 0 0 0 0 0 0 0 0 0 0 0 0 0 0 0 0 0 0 0 0 0 0 0 0 1 2 3 2 3 5
0 0 0 0 0 0 0 0 0 0 0 0 2 0 0 0 0 0 0 0 0 0 0 0 0 0 0 0 0 0 0 0 0 0 0 0 0 1
1 0 0 0 0 0 0 0 0 0 0 1 2 2 1 0 0 0 1 1 1 2 1 0 0 0 0 0 0 0 0 0 0 0 0 0 0 0
1 1 0 0 0 0 0 0 0 0 0 0 2 2 1 1 1 0 0 0 1 2 1 1 1 2 2 0 0 1 1 0 0 0 0 0 0 0
2 1 1 0 0 0 0 0 0 0 0 1 1 1 0 0 0 1 1 1 1 2 1 1 2 1 4 5 0 2 2 1 1 1 0 0 0 0
1 1 1 1 0 0 0 0 0 0 0 0 1 1 4 1 0 1 1 1 0 1 1 1 3 1 0 0 0 0 1 3 1 2 2 1 0 0
0 0 1 0 0 0 1 0 0 0 0 0 0 1 0 1 0 0 0 1 1 1 1 0 3 1 1 0 0 0 0 3 2 1 4 3 2 0
0 0 1 1 0 0 2 1 3 1 0 1 0 0 0 1 0 0 1 1 1 1 1 0 0 0 1 1 0 0 0 1 3 4 2 2 1 2
0 0 1 0 1 1 1 3 2 0 0 0 0 0 1 1 1 0 0 1 0 0 0 0 1 0 0 1 1 0 0 0 1 5 4 1 1 2
0 0 0 0 0 1 0 1 0 0 0 0 1 2 1 2 2 1 1 1 1 0 1 0 0 0 0 1 2 1 1 1 4 6 5 6 5 3
0 0 0 0 0 0 0 0 1 2 1 0 0 1 1 2 0 1 1 1 0 0 1 0 0 1 0 2 1 2 2 3 2 4 6 4 3 3
0 0 0 0 0 0 0 0 0 0 1 1 1 2 2 1 1 0 1 0 0 0 0 1 1 1 0 0 0 0 0 2 1 2 3 4 0 0
1 3 1 1 0 0 1 2 2 2 2 1 1 2 1 1 2 1 1 0 0 0 1 0 1 0 0 0 0 0 1 0 1 2 1 2 1 0
2 3 1 0 0 1 2 1 1 1 2 2 2 3 3 3 3 1 1 1 0 0 1 0 0 2 2 0 0 0 0 1 1 1 1 2 1 0
0 1 1 1 1 1 1 2 2 2 2 2 3 3 4 4 4 2 2 2 2 1 1 1 0 0 0 0 4 1 1 0 1 1 2 0 0 1
0 1 1 1 0 1 1 1 1 2 1 2 2 3 3 3 3 4 3 3 1 1 0 0 0 1 1 1 0 0 0 0 0 1 1 0 1 0
2 1 1 1 1 1 1 1 2 1 2 2 2 2 2 2 2 1 1 2 1 0 0 0 1 1 1 1 0 0 0 0 0 0 0 0 1 0
2 2 2 1 1 1 1 1 2 2 2 1 1 1 1 2 1 1 0 0 0 0 1 1 0 0 0 0 0 0 0 0 0 0 0 0 0 0
1 1 1 1 0 0 0 0 0 1 0 0 0 0 0 1 0 0 0 0 0 1 1 0 0 1 0 0 0 0 1 0 0 0 0 0 0 0
0 0 0 0 0 0 1 0 0 0 0 0 0 1 0 0 0 0 0 1 1 1 0 0 1 1 0 0 0 0 0 0 0 0 0 0 0 0
CIN
0 0 0 0 0 0 0 0 0 0 0 0 0 0 0 0 0 0 0 0 0 0 0 0 0 0 0 -1 0 0 0 0 0 0 0 0 0 0
0 0 0 0 0 0 0 0 0 0 0 0 0 0 -2 -2 0 0 0 0 0 0 0 0 0 0 0 0 0 0 0 0 0 0 -1 0 0 0
0 0 0 0 0 0 0 0 0 0 0 0 0 0 0 0 0 0 0 0 0 0 0 0 0 0 0 0 0 0 0 0 0 0 0 0 0 -1
0 0 0 0 0 0 0 0 0 0 0 0 0 0 0 0 0 0 0 0 0 0 0 0 0 0 0 0 0 0 0 0 0 0 -1 0 0 0
0 0 0 0 0 0 0 0 0 0 0 0 0 0 0 0 0 0 0 0 0 0 0 0 0 0 0 0 0 0 0 0 0 0 0 -1 0 0
0 0 0 0 0 0 0 0 0 0 0 0 0 0 0 0 0 0 0 0 0 0 0 0 0 0 0 0 0 0 0 0 0 0 0 0 0 0
0 0 0 0 0 0 0 0 0 0 0 0 0 0 0 0 0 0 0 0 0 0 0 0 0 0 0 0 -1 0 0 0 0 0 0 0 0 0
0 0 0 0 0 0 0 0 0 0 0 0 0 0 0 0 0 0 0 0 0 0 0 0 0 0 0 0 0 -1 0 0 0 0 0 0 0 0
0 0 0 0 0 0 0 0 0 0 0 0 0 0 0 0 0 0 0 0 0 0 0 0 0 0 0 0 0 0 -1 0 0 0 0 0 0 0
0 0 0 0 0 0 0 0 0 0 0 0 0 0 0 0 0 0 0 0 0 0 0 0 0 0 0 -1 0 0 0 0 0 -1 0 0 0 0
0 0 0 0 0 0 0 0 0 0 0 0 0 0 0 0 0 0 0 0 0 0 0 0 0 0 0 0 0 0 0 0 0 0 -1 0 0 0
0 0 0 0 0 0 0 0 0 0 0 0 0 0 0 0 0 0 0 0 0 0 0 0 0 0 0 0 0 0 0 0 -1 0 0 -1 -1 0
0 0 0 0 0 0 0 0 0 0 0 0 0 0 0 0 0 0 0 0 0 0 0 0 0 0 0 0 0 0 0 0 0 0 -1 0 -1 0
0 0 0 0 0 0 0 0 0 0 0 0 0 0 0 0 0 0 0 0 0 0 0 0 0 0 0 0 0 0 0 0 0 0 0 0 -1 -1
0 0 0 0 0 0 0 0 0 0 0 0 0 0 0 0 0 0 0 0 0 0 0 0 0 0 0 0 0 0 0 0 0 0 0 0 0 0
0 0 0 0 0 0 0 0 0 0 0 0 0 0 0 0 0 0 0 0 0 0 0 0 0 0 0 0 0 0 0 0 0 0 0 0 0 0
0 0 0 0 0 0 0 0 0 0 0 0 0 0 0 0 0 0 0 0 0 0 0 0 0 0 0 0 0 0 0 0 0 0 0 0 0 0
0 0 0 0 0 0 0 0 0 0 0 0 0 0 0 0 0 0 0 0 0 0 0 0 0 0 0 0 0 0 0 0 0 0 0 0 0 0
0 0 0 0 0 0 0 0 0 0 0 0 0 0 0 0 0 0 0 0 0 0 0 0 0 0 0 0 -1 0 0 0 0 0 0 0 0 0
0 0 0 0 0 0 0 0 0 0 0 0 0 0 0 0 0 0 0 0 0 0 0 0 0 0 0 0 0 0 0 0 0 0 0 0 -1 0
0 0 0 0 0 0 0 0 0 0 0 0 0 0 0 0 0 0 0 0 0 0 0 0 0 0 0 0 0 0 0 0 0 0 0 0 0 0
0 0 0 0 0 0 0 0 0 0 0 0 0 0 0 -1 0 -1 -1 0 0 0 0 0 0 0 0 0 0 0 0 0 0 0 0 0 0 0
0 0 0 0 0 0 0 0 0 0 0 0 0 -1 -1 -1 0 -2 -2 -1 -1 0 0 0 0 0 0 0 0 0 0 0 0 0 0 0 0 0
Wind_Speed
34 33 33 31 30 30 28 27 27 30 30 27 25 25 23 22 19 17 16 17 16 14 12 10 8 7 7 6 9 9 9 9 7 7 7 8 8 9
36 35 34 33 32 31 31 30 30 31 33 27 25 24 25 24 20 18 18 18 18 16 14 12 10 9 8 9 8 9 8 7 6 7 7 7 8 9
35 37 37 36 36 34 32 33 33 30 32 27 25 23 25 28 22 18 18 18 19 18 16 14 11 9 10 11 10 9 8 7 6 6 5 5 5 7
35 35 36 36 38 35 36 37 35 33 34 37 27 22 24 30 29 28 22 20 19 18 17 16 13 12 13 13 11 9 9 8 8 6 7 6 8 7
36 36 37 34 36 36 36 36 36 36 37 34 42 24 23 24 22 25 27 23 20 20 18 18 18 14 13 13 12 10 10 10 9 7 6 7 8 6
38 39 38 38 39 38 39 38 37 38 37 34 31 26 26 26 24 24 26 26 23 19 19 17 16 15 14 14 13 11 10 10 10 9 9 8 6 7
40 40 40 38 39 40 39 37 38 39 42 36 33 31 27 27 27 23 25 24 24 23 21 19 17 16 15 14 13 12 11 11 10 10 9 7 7 6
38 39 39 40 39 36 37 35 34 32 36 32 38 35 37 30 25 23 24 25 27 22 20 19 16 15 15 14 14 12 12 11 11 10 9 8 8 7
39 39 39 38 37 37 36 34 36 35 36 35 33 36 33 30 26 23 25 27 25 20 17 19 15 15 13 14 13 12 12 11 11 10 10 9 9 7
33 34 37 36 35 34 32 32 32 31 32 31 33 28 27 24 26 26 26 25 19 17 16 20 14 15 13 13 11 12 12 11 11 11 11 10 10 10
31 30 32 32 31 28 28 28 26 26 22 26 23 22 23 22 21 20 21 22 21 18 17 17 14 15 14 12 10 11 12 12 12 12 11 11 10 9
27 26 26 27 25 24 25 25 26 24 20 21 18 17 18 20 19 21 19 21 18 18 17 16 15 14 17 14 11 11 12 13 13 13 12 11 10 10
25 24 23 23 22 20 19 20 20 18 17 19 17 16 15 16 16 17 17 18 17 20 15 14 14 14 15 15 12 12 12 13 13 13 12 12 11 11
20 19 18 18 15 15 14 14 12 12 12 12 13 15 15 16 17 16 14 14 14 15 10 12 13 14 15 14 14 13 13 13 13 13 13 12 13 14
13 11 10 9 7 7 6 6 6 7 7 8 11 13 13 13 13 13 12 10 10 10 8 10 10 11 11 15 15 14 14 13 13 13 13 14 15 16
2 1 1 2 2 3 3 3 3 4 5 5 6 6 7 8 10 9 7 7 8 9 7 8 9 9 14 16 15 14 12 13 14 14 14 16 16 16
3 2 2 3 3 3 3 3 2 1 1 2 3 3 3 4 6 6 8 10 12 12 12 8 7 8 10 12 15 12 13 15 14 15 15 18 18 17
1 2 3 3 5 7 2 2 3 1 3 2 0 2 5 6 6 6 5 9 11 11 12 10 10 11 13 16 16 15 16 17 17 16 17 18 19 17
3 3 3 2 2 1 1 2 3 2 2 1 3 3 3 4 4 5 6 8 10 11 11 11 12 14 18 23 18 19 19 18 18 18 19 19 19 18
5 1 1 1 1 1 3 3 3 3 2 2 1 1 2 4 5 7 9 10 12 14 14 13 14 16 19 21 20 18 18 17 17 18 18 19 19 21
2 1 2 3 2 3 3 3 3 3 4 4 5 6 7 8 10 11 12 14 15 16 17 17 16 14 16 16 18 17 18 20 18 18 17 19 20 20
3 4 4 4 4 5 5 5 6 6 6 7 8 8 8 10 11 12 13 14 15 16 16 15 13 13 15 18 19 17 16 17 17 15 14 16 18 22
5 6 6 7 7 7 7 7 7 8 9 9 9 10 11 11 13 14 15 16 16 15 14 14 14 15 17 18 18 16 15 16 18 19 18 16 19 18
Wind_Direction
246 248 250 253 254 255 255 251 251 264 257 255 263 249 249 249 247 241 246 238 233 239 239 249 260 271 282 291 296 303 314 320 335 345 351 353 1 358
249 250 249 252 252 253 256 256 252 265 269 260 258 264 254 255 242 242 250 243 238 237 237 244 252 262 274 283 287 297 303 313 322 333 341 351 356 357
251 251 253 252 257 256 254 258 256 261 267 261 247 266 254 254 252 246 250 245 249 237 239 242 247 257 266 278 285 294 293 300 314 318 331 341 349 352
250 252 253 253 252 255 255 255 250 253 258 262 242 254 239 245 244 250 250 246 246 238 234 241 245 256 265 273 280 281 287 293 301 306 318 325 330 333
251 252 254 253 254 257 258 258 256 256 257 262 263 257 250 241 235 247 247 246 245 241 237 250 260 253 256 264 268 267 272 288 296 295 300 302 315 320
257 257 257 255 253 257 258 257 257 259 260 259 259 255 247 236 237 233 241 246 243 239 246 253 252 249 251 260 264 263 266 278 286 290 300 298 305 314
261 261 259 258 257 257 261 257 254 259 259 252 255 254 242 234 229 236 237 238 244 251 249 251 250 254 259 255 256 254 258 268 271 277 286 279 284 293
261 262 263 261 261 260 259 265 264 260 261 264 264 253 246 234 234 224 231 232 251 251 243 252 248 252 257 254 254 248 254 258 262 265 268 275 277 286
265 267 266 267 264 263 262 261 263 259 257 262 259 251 245 238 234 228 229 234 249 246 237 252 243 254 257 260 249 245 250 253 258 256 259 258 266 269
265 266 267 267 265 265 265 263 264 263 262 259 259 247 244 233 228 225 228 238 250 240 240 261 243 259 258 267 243 241 242 245 251 253 255 260 264 268
269 268 268 269 268 264 264 261 263 268 263 262 263 257 245 228 230 234 232 231 245 244 239 262 249 265 263 269 250 237 242 244 248 248 250 249 248 250
271 270 268 269 265 263 263 260 257 261 256 260 258 254 237 230 222 229 228 235 241 257 243 255 244 255 277 270 253 251 253 244 242 241 242 243 246 261
269 270 273 269 266 262 263 256 253 255 253 250 249 247 240 228 234 241 236 235 237 266 241 249 236 241 281 287 262 255 251 248 247 246 240 241 239 256
269 272 274 266 259 258 261 257 246 247 246 240 238 243 240 237 237 242 244 255 260 273 222 229 260 238 263 279 283 264 255 252 246 251 252 249 249 256
275 279 266 261 244 249 237 218 212 220 206 207 229 241 242 240 245 251 256 271 273 278 230 234 267 239 254 279 281 280 261 244 237 244 250 254 258 264
299 295 256 223 232 218 188 202 202 197 209 219 230 240 249 247 250 250 250 248 267 276 251 247 265 239 267 281 280 279 248 264 239 245 254 262 263 265
138 139 180 207 211 206 201 223 231 194 191 236 223 235 236 243 257 252 263 264 271 272 272 249 266 256 264 273 281 273 254 262 256 252 257 266 268 269
190 195 161 199 224 232 195 232 260 88 95 101 223 256 266 265 266 264 268 270 275 278 275 265 265 281 285 283 274 276 269 261 266 256 259 266 269 269
195 169 170 205 234 268 28 61 66 51 62 354 296 290 290 279 261 261 269 276 280 280 277 274 264 268 276 279 279 274 268 264 267 264 263 266 271 273
239 184 165 273 313 8 30 25 31 54 41 13 2 332 302 282 279 283 282 284 286 287 284 279 272 269 274 276 282 268 268 261 260 266 265 273 281 291
270 327 5 38 22 12 8 3 360 338 321 314 306 301 297 295 291 290 290 289 289 288 283 279 277 275 283 290 286 276 267 272 263 265 268 272 276 282
310 320 328 327 330 336 340 341 331 324 317 310 309 306 300 297 299 295 294 294 290 291 289 290 288 280 278 276 278 272 267 271 271 272 267 273 279 282
325 332 336 333 335 336 332 325 322 317 315 311 312 310 308 303 305 303 302 299 297 294 291 291 289 286 281 279 279 272 267 262 265 270 276 274 293 292